TimeMDT,TemperatureF,Dew PointF,Humidity,Sea Level PressureIn,VisibilityMPH,Wind Direction,Wind SpeedMPH,Gust SpeedMPH,PrecipitationIn,Events,Conditions,WindDirDegrees,DateUTC
12:53 AM,53.1,28.9,40,30.03,10.0,SSW,11.5,-,N/A,,Clear,210,2012-09-18 06:53:00
1:53 AM,51.1,30.0,44,30.02,10.0,SW,9.2,-,N/A,,Clear,230,2012-09-18 07:53:00
2:53 AM,54.0,30.0,40,29.99,10.0,SW,18.4,-,N/A,,Clear,230,2012-09-18 08:53:00
3:53 AM,53.1,30.0,41,29.99,10.0,WSW,12.7,-,N/A,,Clear,250,2012-09-18 09:53:00
4:53 AM,53.1,30.0,41,29.98,10.0,WSW,13.8,-,N/A,,Clear,250,2012-09-18 10:53:00
5:53 AM,51.1,30.0,44,30.00,10.0,West,10.4,-,N/A,,Clear,260,2012-09-18 11:53:00
6:53 AM,51.1,30.0,44,30.02,10.0,West,10.4,-,N/A,,Clear,270,2012-09-18 12:53:00
7:53 AM,57.0,30.0,36,30.04,10.0,West,11.5,-,N/A,,Clear,270,2012-09-18 13:53:00
8:53 AM,63.0,30.9,30,30.05,10.0,WNW,8.1,-,N/A,,Clear,290,2012-09-18 14:53:00
9:53 AM,68.0,30.9,25,30.04,10.0,NW,15.0,-,N/A,,Clear,310,2012-09-18 15:53:00
10:53 AM,71.1,30.9,23,30.02,10.0,NW,17.3,23.0,N/A,,Clear,310,2012-09-18 16:53:00
11:53 AM,73.9,32.0,21,29.99,10.0,NW,20.7,-,N/A,,Clear,310,2012-09-18 17:53:00
12:53 PM,75.9,30.9,19,29.97,10.0,NNW,11.5,-,N/A,,Clear,340,2012-09-18 18:53:00
1:53 PM,78.1,27.0,15,29.94,10.0,WNW,16.1,24.2,N/A,,Clear,300,2012-09-18 19:53:00
2:53 PM,79.0,27.0,15,29.90,10.0,NW,13.8,-,N/A,,Clear,320,2012-09-18 20:53:00
3:53 PM,80.1,27.0,14,29.88,10.0,NW,9.2,20.7,N/A,,Clear,310,2012-09-18 21:53:00
4:53 PM,80.1,28.0,15,29.86,10.0,NW,15.0,-,N/A,,Clear,320,2012-09-18 22:53:00
5:53 PM,78.1,28.0,16,29.86,10.0,NW,8.1,-,N/A,,Clear,320,2012-09-18 23:53:00
6:53 PM,66.0,28.0,24,29.88,10.0,NW,4.6,-,N/A,,Clear,310,2012-09-19 00:53:00
7:53 PM,55.0,27.0,34,29.89,10.0,WSW,4.6,-,N/A,,Clear,250,2012-09-19 01:53:00
8:53 PM,57.9,28.0,32,29.87,10.0,South,6.9,-,N/A,,Clear,190,2012-09-19 02:53:00
9:53 PM,57.9,28.0,32,29.86,10.0,SW,3.5,-,N/A,,Clear,220,2012-09-19 03:53:00
10:53 PM,59.0,30.0,33,29.84,10.0,SW,9.2,-,N/A,,Clear,230,2012-09-19 04:53:00
11:53 PM,64.9,30.0,27,29.83,10.0,WSW,13.8,-,N/A,,Clear,240,2012-09-19 05:53:00